{"data":{"norad_id":60599,"intl_designator":"2024-150S","name":"STARLINK-32165","alt_names":[],"object_type":"PAYLOAD","status":"ACTIVE","operator":null,"country":"US","launch_date":"2024-08-20","launch_site_code":"AFETR","launch_vehicle":null,"mission":null,"orbit_class":"UNKNOWN","rcs_meters":null,"size_class":null,"mass_kg":null,"dimensions":null,"purposes":["comms"],"wikipedia_slug":null,"has_3d_model":false,"image_url":null,"decayed_at":null,"tle_current":{"epoch":"2026-05-24T18:08:17.050560Z","epoch_age_seconds":96390,"freshness":"FRESH","line1":"1 60599U 24150S   26144.75575290  .00000634  00000+0  33527-4 0  9994","line2":"2 60599  53.1612 313.9749 0001124  82.9165 277.1963 15.30193748 99682","mean_motion":15.30193748,"eccentricity":0.0001124,"inclination_deg":53.1612,"raan_deg":313.9749,"arg_perigee_deg":82.9165,"mean_anomaly_deg":277.1963,"bstar":3.3527e-5,"rev_number":9968,"period_min":94.10573019803,"perigee_km":474.46341795713,"apogee_km":476.00405569877,"semimajor_km":6853.370736828,"source":"CELESTRAK","updated_at":"2026-05-25T13:38:19.281821Z"}}}